FENGYUN 1C DEB, 36995

Orbit data source: Space-Track

FENGYUN 1C DEB, 36995 is space debris in SSO originally from a launch on Mon, 10 May 1999 UTC launched from the Taiyaun Space Center, China (TSC). Fengyun 1C debris stems from the Chinese weather satellite Fengyun-1C, which was intentionally destroyed by a Chinese anti-satellite missile in 2007. This event dramatically increased the amount of space debris, with thousands of trackable fragments posing hazards to satellites and human spaceflight. The Fengyun 1C debris cloud has become a focal point in discussions about space sustainability and the need for international regulations to prevent the creation of new debris.

Loading next visibility...
Identifier
36995, 1999-025ECB
Orbit
SSO
Country
Flag of CNCN / PRC
Related business
Manufacturer
Unknown
Mission
Spacecraft
Bus & Motor
Unknown
Mass
Unknown
Launch date (UTC)
1999-05-10 (27 years ago)
Launch vehicle
Unknown
Launch site
Taiyaun Space Center, China (TSC)
Object type
Payload
Rocket body
Debris
Shape & HBR
Unknown shape, 0.1 m
Radar Cross Section
Small (<0.1 m²)

Expand to show TLE details & history
Last TLE update: 2 weeks ago

TLE from 2 weeks ago
0 FENGYUN 1C DEB
1 36995U 99025ECB 26195.84935257  .00000262  00000-0  18533-3 0  9996
2 36995  98.3146  62.0992 0040364  62.5669 297.9597 14.04915095665636
Epoch: 2026-07-14T20:23Z
TLE epoch observation values (Epoch: 2026-07-14T20:23:04.062Z)
Latitude
0.00002°
Longitude
-176.38134°
Altitude
866.091 km
Speed
7.426 km/s
True Right ascension
04h 08m 23s
True Declination
0° 00' 00"
Sunlit
Object was in daylight at epoch
Visualization orbit readout
Latitude
Unknown
Longitude
Unknown
Altitude
Unknown
Speed
Unknown
Apparent Right ascension
Unknown
Apparent Declination
Unknown
Sunlit
N/A
Visualization observer readout
Local Sidereal Time
23:31:40
Azimuth
Unknown
Elevation
Unknown
Doppler factor
Unknown
Orbital elements
Apogee altitude
903.257 km
Perigee altitude
844.713 km
Semi-major axis
7,252.122 km
Eccentricity
0.00404
Inclination
98.3146°
RAAN
62.0992°
Arg. of periapsis
62.5669°
True anomaly
297.55019°
Mean anomaly
297.9597°
Eccentric anomaly
297.75504°
Mean motion
3.51435 °/min
Orbital period
102.44 mins
BSTAR
0.00018533
Loading maneuver chart data...
Computing Atmospheric mass density...
Loading historical data...
Loading historical data...
Loading historical data...
Loading historical data...
Loading historical data...
Loading historical data...
Loading historical data...

Documentation

Showing up to 5 results
|